Location: Nairn
(57.5833°N, 3.8667°W)
Time: 22:31:53
(UTC+00:00)

Altair - Pass Details

Date: 08 October 2022
Orbit: 1501 x 1682 km, 47.2° (Epoch: 05 December)

Event Time Altitude Azimuth Distance (km) Brightness Sun altitude
Exits shadow 04:32:46 11° 215° (SW) 3,710 9.1 -16.9°
Maximum altitude 04:40:56 36° 154° (SSE) 2,376 8.6 -15.9°
Drops below altitude 10° 04:49:41 10° 93° (E) 3,919 10.9 -14.7°
Sets 04:53:11 0° 86° (E) 4,923 12.0 -14.3°
